Location: Castifao
(42.5040°N, 9.1124°E)
Time: 13:32:55
(UTC+00:00)

Daily predictions for brighter satellites

Satellite Brightness Start Highest point End
(mag) Time Altitude Azimuth Time Altitude Azimuth Time Altitude Azimuth
Cosmos 1125 Rocket 3.8 16:54:03 10° SSW 16:59:14 70° WNW 17:04:27 10° NNE
DELTA 2 R/B (1) 4.0 16:55:45 10° WSW 17:01:15 61° S 17:06:47 10° E
Shenzhou-11 Module 2.7 17:01:34 10° SW 17:04:05 35° SSE 17:06:33 10° E
ERBS 2.6 17:03:55 10° SW 17:07:13 64° NW 17:10:32 10° NE
Cosmos 2341 Rocket 4.2 17:01:31 10° SSE 17:07:42 56° E 17:13:52 10° NNE
Envisat 3.0 17:03:20 10° SSE 17:08:24 76° ENE 17:13:29 10° N
SKYMED 2 4.0 17:05:02 10° NNE 17:09:11 42° E 17:13:18 10° S
YAOGAN 6 2.7 17:07:43 10° SSE 17:11:18 52° ENE 17:14:52 10° N
NOAA 12 4.1 17:10:13 10° SSE 17:15:27 87° WSW 17:20:44 10° NNW
Cosmos 1626 3.5 17:13:29 10° SSW 17:16:59 40° WNW 17:20:31 10° N
Cosmos 1812 Rocket 3.9 17:13:41 10° NNW 17:18:09 73° W 17:22:36 10° S
Iridium 96 4.4 17:17:25 10° NNE 17:19:33 28° E 17:21:46 10° SSE
Cosmos 1300 3.9 17:15:59 10° NNW 17:19:38 46° W 17:23:17 10° SSW
Cosmos-2242 3.3 17:16:50 10° N 17:21:00 45° ENE 17:25:05 10° SSE
Cosmos 2237 Rocket 2.1 17:15:49 10° NNW 17:21:29 82° ENE 17:27:06 10° SSE
Atlas Centaur 2 4.0 17:21:31 10° S 17:23:55 14° SSE 17:26:34 10° SE
YAOGAN 1 3.0 17:21:13 10° SE 17:25:12 38° ENE 17:29:13 10° N
Cosmos 1269 Rocket 4.1 17:20:22 10° NNW 17:25:41 87° WSW 17:30:58 10° SSE
SL-8 R/B 3.7 17:21:44 10° SW 17:26:33 75° SSE 17:30:14 17° ENE
CSL-04 Rocket 4.0 17:22:07 10° SE 17:27:16 43° ENE 17:32:29 10° N
CZ-2D R/B 4.1 17:24:14 10° SE 17:27:29 27° ENE 17:30:46 10° NNE
ATLAS CENTAUR R/B 2.9 17:25:30 10° N 17:27:58 15° NE 17:28:31 15° NE
Cosmos 2333 Rocket 4.4 17:24:32 10° NW 17:29:26 30° WSW 17:34:18 10° SSW
CZ-4 R/B 1.5 17:25:51 10° SSE 17:29:47 53° ENE 17:33:49 10° N
ATLAS 5 CENTAUR R/B 4.3 17:30:12 10° NNW 17:30:52 10° NNW 17:31:33 10° NNW
USA 267 4.2 17:27:53 10° NE 17:33:49 38° NNW 17:39:44 10° W
Cosmos 1455 2.4 17:30:34 10° N 17:34:14 45° ENE 17:37:52 10° SSE
Cosmos 2218 Rocket 4.1 17:30:03 10° SSE 17:36:11 56° E 17:42:25 10° NNE
Cosmos 1339 Rocket 4.5 17:31:55 10° N 17:37:55 58° E 17:43:57 10° SSE
SL-16 R/B 2.4 17:39:01 10° NNW 17:44:32 49° ENE 17:49:58 10° SE
Cosmos 44 3.0 17:42:50 10° SSW 17:47:27 79° ESE 17:50:34 19° NE
Cosmos 2219 4.1 17:43:54 10° SW 17:49:20 49° WNW 17:54:48 10° NNE
Cosmos 2082 3.6 17:45:18 10° SSW 17:50:52 69° ESE 17:55:58 13° NNE
Ariane Rocket 3.7 17:47:32 10° SE 17:51:56 31° ENE 17:56:22 10° N
Cosmos 1356 Rocket 3.9 17:50:04 10° N 17:53:48 35° ENE 17:55:52 21° SE
Cosmos 1959 Rocket 4.4 17:49:12 10° S 17:55:20 77° E 18:01:28 10° N
Cosmos 1953 Rocket 3.6 17:51:13 10° S 17:55:42 87° W 18:00:12 10° N
Cosmos 1328 3.7 17:52:26 10° S 17:56:26 77° E 18:00:28 10° N
COSMO-SKYMED 1 3.2 17:53:02 10° N 17:57:18 56° WNW 18:01:33 10° SSW
Cosmos 2297 Rocket 2.8 17:54:10 10° SW 17:59:43 57° WNW 18:05:19 10° NNE
Cosmos 1842 Rocket 4.1 17:57:39 10° N 18:01:41 35° ENE 18:01:41 35° ENE
USA 234 4.3 18:01:44 10° SSE 18:07:54 45° SW 18:14:07 10° WNW
Cosmos 2366 rocket 4.0 18:02:36 10° S 18:08:49 87° W 18:15:09 10° N
Cosmos 2227 Rocket 3.0 18:06:57 10° SW 18:12:26 50° WNW 18:17:56 10° NNE
Cosmos 2263 Rocket 4.1 18:08:58 10° SE 18:09:51 13° SE 18:09:51 13° SE
NOAA 11 4.3 18:07:41 10° S 18:13:11 81° WSW 18:18:43 10° NNW
SWAS 4.5 18:09:12 10° S 18:13:26 57° ESE 18:14:01 52° ENE
ISS -2.9 18:11:51 10° W 18:15:03 40° NNW 18:15:23 39° N
Cosmos 44 Rocket 4.5 18:12:23 10° S 18:15:17 25° SE 18:15:17 25° SE
H-2A R/B 3.7 18:21:11 17° NNE 18:21:11 17° NNE 18:22:38 10° N
Meteor 2-10 Rocket 4.0 18:15:07 10° NNW 18:20:20 60° W 18:25:20 10° S
Meteor 2-12 Rocket 4.3 18:14:37 10° S 18:20:35 65° E 18:26:35 10° NNE
Cosmos 2251 Rocket 3.4 18:20:06 10° NNW 18:25:26 89° ENE 18:30:46 10° SSE
H-2A ROCKET BODY 4.1 18:22:24 10° WSW 18:25:52 14° SW 18:28:01 10° S
Cosmos 1939 Rocket 3.6 18:27:21 10° S 18:31:08 50° W 18:35:00 10° NNW
Cosmos 1727 Rocket 4.1 18:31:42 10° N 18:37:52 75° W 18:44:01 10° S
ADEOS Rocket 3.3 18:35:53 10° NNE 18:42:36 90° WNW 18:50:00 10° SSW
DELTA 2 R/B (1) 3.7 18:41:58 10° W 18:47:29 61° S 18:48:03 57° SSE
ATLAS CENTAUR R/B 3.5 19:03:26 10° NW 19:04:45 19° NW 19:04:45 19° NW
Atlas Centaur 2 3.8 19:07:41 10° SW 19:10:43 23° SSW 19:10:43 23° SSW
ATLAS 5 CENTAUR R/B 4.1 19:10:52 10° NNW 19:16:29 64° NE 19:18:33 56° E
Cosmos 1821 Rocket 4.3 19:10:57 10° SSW 19:17:16 66° W 19:21:50 20° N
SL-16 R/B 4.2 19:23:47 10° NW 19:28:17 25° WSW 19:32:46 10° SSW
